Tracking 22989 objects as of 8-May-2021
HD Live streaming from Space Station
objects crossing your sky now

THORAD AGENA D DEB

Track THORAD AGENA D DEB now!
10-day predictions


NORAD ID: 4749
Int'l Code: 1970-025CX
Perigee: 958.3 km
Apogee: 980.2 km
Inclination: 99.2 °
Period: 104.3 minutes
Semi major axis: 7340 km
RCS: 0.0977 m2 (small)
Launch date: April 8, 1970
Source: United States (US)
Launch site: AIR FORCE WESTERN TEST RANGE (AFWTR)

Note: This is SATELLITE DEBRIS
aabbcc
Your satellite tracking list
Your tracking list is empty




NASA's NSSDC Master Catalog

Two Line Element Set (TLE):
1 04749U 70025CX  21127.89056217  .00000590  00000-0  60398-3 0  9992
2 04749  99.1654   4.2770 0014933 329.6456  30.3831 13.80506242545402
Source of the keplerian elements: AFSPC